Theta_e
280 280 280 280 280 279 279 279 279 280 280 280 279 279 279 279 279 279 279 279 279 279 278 278 278 278 277 277 277 277 277 277 277 277 277 276 277 277 277 277 276 276 277 276 277 277 277 276 277 277 278 277 278 278 278 278 279 279 279 279 279 280 280 279 277 277 280 283 283 283 285 285 284 286 285 286 287 288 288 290 290 290 290 290 290
280 280 280 280 279 279 279 279 278 278 278 278 279 279 279 279 279 279 279 279 278 278 278 278 278 277 277 276 276 276 276 276 276 276 276 276 276 276 276 276 276 275 276 275 276 276 276 276 276 277 277 277 277 277 278 278 278 278 278 278 278 278 280 278 277 277 276 280 281 283 283 284 282 285 284 284 285 286 286 287 288 289 289 289 289
280 280 279 279 279 278 278 278 278 278 278 278 278 278 278 278 278 278 278 278 278 277 277 277 276 276 275 275 275 275 275 275 275 275 275 275 275 275 275 275 275 275 275 275 275 276 276 276 276 276 277 276 277 277 277 277 277 277 277 278 277 278 278 279 277 276 276 277 280 280 281 282 282 282 284 284 285 285 285 285 286 287 288 288 289
279 279 279 278 278 278 278 278 278 278 278 278 277 277 277 277 277 277 277 277 276 276 276 275 275 275 274 274 274 274 274 274 274 274 274 274 274 274 274 274 274 274 274 275 275 275 275 275 275 276 276 275 275 276 276 277 276 276 276 277 277 277 278 278 278 277 277 276 278 279 280 280 281 282 283 284 283 283 284 284 286 286 286 287 288
279 279 278 278 278 278 278 278 278 277 277 277 277 277 277 276 276 276 275 275 275 274 274 274 273 273 273 273 273 273 273 273 273 273 273 274 273 273 273 274 274 274 274 275 275 275 274 274 274 275 275 274 274 275 275 275 275 276 275 276 276 277 277 277 277 278 276 276 276 279 280 280 281 281 282 281 282 283 283 283 284 284 285 286 287
279 278 278 278 277 277 277 277 277 277 277 276 276 276 276 275 274 274 274 273 273 273 272 272 272 272 272 272 272 272 272 272 272 272 272 272 272 273 273 274 274 274 274 274 274 274 274 274 274 274 274 273 273 274 274 274 274 274 274 275 276 276 276 277 277 277 277 276 277 276 279 279 279 280 281 282 281 280 281 283 284 284 284 284 286
278 278 278 278 277 277 277 277 277 277 276 276 276 275 274 273 273 272 273 272 271 271 271 271 271 271 271 271 271 271 271 271 271 271 271 271 272 273 273 273 273 274 274 274 274 274 274 273 273 273 273 273 273 273 273 273 274 274 275 275 276 276 276 276 277 276 276 276 276 277 277 278 278 277 280 282 281 281 280 280 280 282 284 283 283
278 277 277 277 277 277 277 277 276 276 276 275 274 273 272 272 271 271 271 270 270 270 270 269 270 270 270 269 270 270 269 270 270 270 270 271 273 273 273 273 273 273 273 273 273 273 273 273 273 273 273 273 273 274 274 274 274 274 275 275 275 275 275 275 275 275 274 274 274 274 276 277 278 279 280 280 279 280 281 280 278 279 281 283 283
277 277 277 277 277 277 276 276 275 275 274 273 272 271 271 270 270 270 269 269 269 269 269 269 268 268 268 268 268 268 268 268 269 269 271 273 274 273 273 273 273 273 273 273 273 273 273 273 273 273 273 274 275 275 275 275 274 272 273 274 274 274 273 274 274 274 274 274 274 275 275 275 275 276 276 277 277 277 280 280 279 280 281 281 282
277 276 277 276 276 276 275 275 274 273 272 271 270 269 269 269 268 268 268 267 267 267 267 268 267 267 267 267 267 267 267 268 269 272 275 274 274 274 273 273 273 273 272 272 272 272 272 272 273 274 274 274 274 274 274 275 275 274 273 273 273 272 272 271 271 272 272 272 272 273 273 273 274 275 276 277 278 278 278 278 278 279 280 280 281
277 276 276 275 275 274 274 273 272 271 270 269 268 268 268 267 267 266 266 266 266 266 266 266 266 266 266 266 265 266 266 267 270 273 274 275 274 274 273 273 273 272 272 271 271 271 272 272 272 272 272 272 271 272 273 274 275 275 275 275 275 273 271 271 271 272 271 271 272 272 271 271 273 274 274 275 277 278 278 279 278 279 278 277 276
277 276 276 274 274 274 272 271 270 269 268 267 267 266 266 265 265 265 264 264 265 265 265 265 265 265 265 265 265 265 265 267 271 272 274 275 275 274 274 273 272 272 271 271 271 270 270 270 270 270 270 270 270 270 271 273 273 274 274 274 275 275 276 273 271 271 271 271 271 271 272 272 273 274 274 275 275 275 276 276 275 275 275 275 276
276 275 274 274 273 272 270 269 268 267 266 265 265 264 264 264 263 263 263 264 264 264 264 264 264 264 264 263 263 264 264 267 270 272 273 275 275 275 273 273 272 271 271 270 270 269 269 269 268 269 269 271 270 270 269 269 271 272 273 273 273 274 274 275 275 273 272 271 270 270 271 271 271 272 274 274 275 273 273 273 274 274 275 275 275
275 274 273 272 271 269 268 267 266 266 265 264 264 263 263 263 263 263 263 263 263 263 263 263 263 263 263 263 263 263 263 266 270 272 273 274 275 275 273 272 271 270 269 269 269 269 268 268 268 268 269 269 269 269 269 269 269 270 270 270 271 272 274 275 275 275 274 272 271 270 271 272 271 273 274 275 273 272 272 272 274 274 274 274 276
273 273 271 270 269 267 267 266 265 264 264 263 263 263 262 262 262 262 262 262 262 262 262 261 261 261 261 262 262 262 262 267 270 271 272 273 275 275 272 270 269 269 269 269 269 269 269 269 268 268 268 268 269 270 270 270 270 270 270 270 271 271 272 272 272 272 273 273 273 272 273 274 274 274 275 276 275 275 275 274 275 275 275 276 277
272 271 270 268 267 267 266 265 264 263 263 262 261 263 262 262 261 262 261 261 261 262 261 261 261 260 261 261 260 261 262 267 269 270 272 273 274 272 270 269 268 268 268 269 269 269 269 269 269 268 268 269 271 273 273 271 271 270 270 270 271 272 272 274 276 277 275 275 275 274 275 275 277 277 277 277 277 278 278 278 277 276 275 273 272
271 270 269 267 266 266 266 264 263 262 262 261 260 261 262 261 260 261 260 261 261 260 260 260 260 260 260 260 260 260 261 264 268 270 271 273 272 270 270 269 268 268 268 269 269 269 269 269 269 269 269 269 272 274 275 275 272 271 271 271 271 271 271 273 276 278 279 279 279 280 280 281 281 281 281 281 279 279 277 275 273 274 272 270 271
270 269 268 266 266 265 265 263 262 262 260 260 260 262 261 260 260 260 260 259 259 259 259 259 259 259 259 259 259 259 260 263 267 269 271 272 272 270 269 268 268 268 268 269 269 269 270 271 271 271 270 270 273 275 276 275 273 272 272 272 272 272 272 274 275 275 278 279 279 279 280 280 280 281 281 281 280 279 275 272 273 273 271 271 270
269 268 267 265 265 263 263 262 262 260 260 261 259 259 259 259 259 259 258 258 258 258 258 258 258 258 258 259 261 261 260 262 266 268 270 271 271 270 270 269 268 268 268 268 269 270 270 271 272 273 272 273 276 277 277 276 273 273 273 272 271 271 273 274 273 273 274 274 274 275 275 276 276 276 276 279 279 278 276 275 275 273 271 271 271
269 267 266 264 263 262 262 261 260 259 260 259 258 259 259 257 257 258 257 257 257 258 257 257 257 257 258 258 259 260 259 260 262 268 269 271 272 270 270 269 268 268 269 269 268 269 270 270 271 274 275 276 277 278 278 278 275 274 274 272 271 271 274 274 274 274 274 274 274 274 274 275 275 275 275 275 276 276 276 276 275 274 272 272 271
266 265 264 263 262 261 260 260 259 258 259 258 259 258 258 259 258 256 256 256 256 256 256 256 256 257 257 258 258 259 259 260 261 267 269 271 272 272 270 270 269 269 269 269 270 270 270 271 271 274 276 277 277 278 278 278 278 275 274 274 274 275 277 275 275 276 275 275 275 275 275 275 275 275 275 275 275 276 276 277 276 276 274 273 272
265 264 263 262 260 259 258 258 258 257 256 256 256 256 257 256 256 256 256 256 255 255 256 256 257 257 258 258 258 259 260 262 262 266 269 271 272 273 271 271 272 271 271 270 270 270 271 271 272 274 276 277 277 278 278 278 278 276 276 278 279 279 277 276 276 275 274 274 273 273 272 272 272 272 273 273 274 275 275 275 276 276 276 275 274
264 263 262 260 259 257 257 256 256 255 254 256 255 255 255 255 254 254 254 254 254 254 255 256 256 257 257 258 259 259 260 260 265 265 269 271 273 274 274 273 275 273 271 270 271 271 272 272 273 275 276 277 277 278 278 279 278 276 279 279 279 279 277 275 274 274 273 272 272 271 271 271 270 271 271 272 272 273 273 274 274 275 275 275 275
262 261 260 259 257 256 256 255 255 255 255 255 254 254 254 254 253 253 254 254 255 255 256 256 256 256 256 258 258 260 261 262 264 268 269 272 273 274 274 275 275 273 273 272 272 272 272 272 273 277 278 278 278 278 278 278 276 278 278 278 278 277 274 273 272 271 270 270 269 269 269 270 270 270 270 271 272 272 273 273 274 274 274 274 274
260 260 258 257 256 255 254 254 253 253 252 254 254 255 254 252 254 252 254 254 255 254 255 255 255 255 256 257 259 261 263 265 266 268 271 271 273 274 274 275 276 276 273 273 273 273 275 277 277 277 277 277 276 276 274 274 275 276 276 276 275 272 270 270 269 269 268 267 268 268 268 269 270 270 271 272 272 273 273 273 274 274 274 274 274
259 259 256 256 255 254 254 253 252 253 253 254 254 255 255 255 255 254 254 255 254 254 255 255 255 255 256 258 260 262 264 265 266 267 269 270 271 272 274 275 275 275 275 274 275 276 275 275 275 275 273 272 270 270 270 270 273 273 273 272 269 269 268 268 267 267 267 267 267 267 268 270 270 271 272 272 272 271 272 272 272 272 273 273 272
260 258 257 256 254 253 255 255 254 253 252 253 254 254 255 254 254 255 255 254 254 254 255 255 255 256 257 259 262 263 264 265 266 267 268 269 269 270 272 272 274 275 272 271 272 271 271 271 271 272 270 270 270 270 269 269 267 268 268 268 268 268 268 267 267 267 267 267 268 268 269 270 271 271 271 271 271 272 273 272 272 272 272 272 271
260 258 257 256 255 254 255 256 256 254 254 253 254 253 254 254 254 255 255 255 254 255 255 256 256 257 259 261 262 263 263 265 267 267 268 269 270 272 272 272 272 271 270 270 270 269 268 268 266 264 263 263 264 264 265 265 266 265 265 265 265 266 267 268 268 266 266 267 267 268 268 269 269 270 270 271 271 272 273 272 272 271 272 272 270
258 257 255 254 255 254 254 255 255 255 254 252 253 255 255 254 255 255 255 256 256 257 257 258 259 259 260 262 262 262 264 266 267 271 271 273 272 271 272 271 271 270 270 272 268 265 263 261 260 260 260 261 261 261 262 262 262 263 262 262 263 263 263 263 263 264 265 266 266 267 268 268 268 269 270 270 271 272 273 272 273 272 272 272 270
257 256 255 254 254 254 254 253 252 254 253 253 251 252 257 262 259 257 257 261 265 267 265 261 261 261 261 263 264 265 267 268 272 273 273 273 274 275 274 274 273 271 271 271 265 260 259 258 259 259 259 259 259 260 260 260 260 260 261 263 262 262 262 262 263 264 265 265 265 266 266 267 267 269 269 270 271 272 273 274 272 272 271 270 270
258 257 255 255 255 255 254 253 253 252 252 253 252 254 254 256 263 266 267 267 268 269 270 271 272 272 270 269 270 272 272 272 272 272 273 273 274 274 273 273 272 271 270 265 260 258 257 257 257 258 258 259 259 259 259 259 259 259 260 260 261 261 262 262 263 263 264 264 265 265 266 266 267 269 269 270 271 272 272 273 273 272 271 271 270
259 258 256 255 256 256 255 255 254 253 253 254 253 253 253 253 255 262 264 265 267 268 269 270 271 271 271 271 270 268 269 271 271 272 272 273 273 272 272 271 270 269 269 266 258 257 257 257 257 257 258 258 258 258 258 258 259 259 259 259 259 261 261 261 263 263 263 264 264 265 265 266 267 268 269 270 271 271 271 272 272 272 272 272 271
259 257 256 255 255 256 255 254 254 254 253 253 252 252 253 252 253 255 258 263 264 266 268 269 269 270 270 270 270 270 270 270 271 271 272 272 272 271 271 269 268 267 266 259 256 256 256 256 256 257 257 257 257 257 258 258 258 258 259 259 259 260 261 262 263 263 263 264 264 265 265 266 267 268 269 269 269 270 271 271 272 272 272 271 271
257 256 255 255 255 255 255 255 254 254 254 254 253 254 254 254 253 253 253 254 257 260 264 265 266 267 267 267 268 269 269 270 270 271 272 271 270 270 268 263 265 265 263 258 256 256 256 256 256 256 257 257 257 257 257 258 258 258 259 259 260 260 261 262 263 262 263 264 264 265 266 266 267 266 266 267 268 269 270 271 271 271 271 272 271
254 255 256 255 255 255 255 256 255 254 253 253 253 254 254 254 254 254 253 253 253 254 255 257 260 263 263 264 266 268 268 269 269 270 271 269 268 268 265 257 256 256 257 256 256 256 256 256 256 256 256 256 257 257 257 257 258 258 259 259 259 260 261 262 262 263 264 264 264 264 265 265 266 266 266 266 266 267 269 270 271 272 271 272 272
255 255 255 256 255 255 255 254 255 254 254 253 253 253 253 254 254 254 254 254 254 253 254 255 256 259 263 264 266 266 267 268 268 269 269 267 267 264 256 255 255 255 255 256 255 256 256 256 256 256 256 256 257 257 257 257 258 258 259 259 260 261 261 262 263 264 264 264 264 264 265 265 265 265 265 266 266 267 268 269 270 272 272 273 274
255 255 256 256 255 255 255 254 253 254 257 255 255 254 254 254 254 254 253 253 253 253 253 254 254 255 258 258 259 263 265 266 267 268 266 265 264 258 253 254 254 255 255 255 255 255 255 256 256 256 256 256 256 257 257 258 258 258 260 260 260 261 262 263 264 264 263 263 264 264 264 264 265 265 265 265 266 266 267 268 269 271 272 273 274
256 256 256 255 254 254 253 254 253 256 255 255 254 255 254 254 253 253 253 253 253 254 253 253 255 254 253 254 258 257 258 263 265 265 262 261 257 255 255 254 254 254 255 255 255 255 255 255 256 255 256 256 256 257 257 258 258 259 260 260 261 262 264 264 264 263 264 264 264 264 264 264 265 265 265 265 265 266 267 268 268 269 270 272 272
255 256 257 257 257 254 253 253 254 254 253 254 254 254 254 253 253 252 252 252 252 252 252 252 252 252 253 254 254 256 257 258 260 258 256 254 254 254 253 253 253 254 254 254 254 255 254 255 255 256 256 256 257 257 257 258 259 259 260 260 261 262 263 263 263 264 264 264 264 264 264 264 265 265 265 265 265 266 266 267 268 268 269 270 271
255 255 257 258 258 258 256 255 254 254 253 253 252 252 252 253 253 252 251 251 251 251 251 251 252 252 253 251 253 255 256 259 260 257 255 254 253 253 252 253 253 253 253 253 253 253 254 254 255 255 255 256 256 257 257 258 258 259 260 260 261 262 263 263 264 264 264 264 264 264 264 264 264 265 265 265 265 266 266 266 267 268 269 270 271
256 256 255 257 257 257 256 255 255 254 253 253 253 252 252 252 252 252 251 251 251 251 252 252 252 252 253 255 261 262 261 260 257 255 254 253 253 252 252 252 253 252 253 253 253 253 253 253 254 254 255 255 256 256 257 257 258 259 259 260 261 262 263 263 264 264 265 265 265 264 264 264 264 264 264 265 267 266 266 267 267 268 269 270 270
254 253 253 254 255 255 254 254 254 254 254 253 252 252 252 252 251 251 251 251 252 252 251 252 252 252 255 260 262 264 262 256 254 253 253 253 253 252 253 253 252 252 252 252 252 252 253 253 253 254 254 255 255 256 256 256 257 258 259 260 261 262 262 263 263 264 264 265 265 264 264 264 264 265 265 266 265 265 266 266 267 267 268 269 270
252 252 253 252 253 253 253 254 253 252 252 252 252 252 253 252 251 252 252 252 252 251 251 252 252 251 252 257 258 260 257 253 253 252 252 252 252 252 252 252 252 252 252 252 252 252 252 252 252 253 254 254 254 255 255 256 257 257 259 260 261 262 262 263 263 264 264 265 265 265 264 264 264 264 264 265 265 265 265 266 266 267 267 268 269
251 251 252 252 252 252 252 251 252 252 251 252 252 251 251 251 251 250 250 250 250 251 251 251 251 252 252 253 255 253 251 251 251 251 251 252 252 252 252 252 252 251 252 252 252 252 252 252 252 253 253 254 254 254 255 256 257 257 258 259 260 262 262 263 263 263 264 265 265 264 264 264 264 264 264 264 265 264 265 265 266 266 267 267 268
250 251 251 251 251 251 251 251 251 251 251 251 251 251 251 250 250 250 250 250 251 250 251 251 251 251 252 252 251 251 251 251 252 252 251 251 251 251 252 251 251 251 251 252 252 251 251 251 252 252 252 253 254 254 254 255 256 257 258 259 260 261 262 263 263 264 265 265 265 264 264 263 263 263 264 264 264 264 265 265 265 266 266 267 267
251 251 251 251 251 250 250 249 250 249 250 250 249 249 249 247 248 249 250 250 250 250 250 250 250 250 251 251 251 251 251 250 250 251 251 251 251 251 251 251 251 251 251 251 251 251 251 251 252 252 252 252 252 253 254 254 255 256 257 259 260 261 263 264 264 264 265 266 265 264 263 263 263 263 264 264 264 264 264 265 265 266 266 266 267
248 249 250 250 250 250 249 250 249 249 247 248 248 248 248 248 247 249 249 250 250 250 250 250 250 250 250 250 250 251 251 251 250 250 250 250 250 250 250 250 250 250 251 251 251 251 251 251 251 251 251 252 252 252 253 254 255 256 257 258 259 261 262 263 263 264 265 266 265 264 263 262 262 263 263 263 263 264 264 264 264 265 265 266 266
247 248 248 248 248 248 249 247 249 251 249 249 248 248 248 248 247 249 247 249 249 250 250 250 249 250 250 250 250 250 250 250 250 250 250 250 250 250 249 249 249 250 250 250 251 251 251 251 251 250 251 251 252 252 252 253 254 255 256 257 258 259 260 261 262 264 266 267 265 263 261 261 261 262 262 262 262 263 263 263 264 264 265 265 265
247 247 247 247 247 249 247 248 248 247 248 248 247 249 248 248 248 247 248 248 249 249 248 249 249 249 249 250 250 250 250 250 249 249 249 250 249 249 249 249 249 250 250 250 250 250 250 250 250 251 251 251 251 251 252 252 253 254 254 255 257 258 259 261 263 265 266 266 264 262 261 260 260 260 261 261 262 262 262 262 263 263 263 264 264
247 247 247 247 248 249 247 247 247 247 247 246 247 247 248 247 247 247 248 248 248 248 248 248 249 249 249 249 250 250 249 249 249 249 249 249 249 249 249 248 248 249 249 249 250 250 250 250 250 250 250 251 251 251 252 252 253 253 254 255 257 258 261 262 264 265 266 266 263 261 260 259 259 260 260 261 261 260 261 262 262 262 262 262 262
246 246 246 247 247 248 246 245 246 247 246 247 247 247 248 247 248 248 248 248 248 248 249 249 248 248 249 249 249 249 249 249 249 249 249 249 249 248 248 248 249 249 249 249 249 249 249 249 250 250 250 251 251 251 251 252 252 253 254 256 258 260 262 263 264 265 266 266 262 260 260 259 259 259 260 260 261 260 261 261 261 261 261 261 261
Wind_Speed
7 8 7 7 8 8 8 7 8 6 7 6 6 5 5 5 5 4 3 5 4 5 5 5 5 5 6 6 6 7 7 7 6 6 6 6 6 6 6 6 7 7 7 7 6 6 7 8 8 7 7 8 7 7 7 8 7 7 7 7 8 7 7 9 12 16 14 8 10 12 11 12 16 11 14 13 10 8 9 9 9 8 8 7 8
8 8 7 7 8 8 7 6 7 7 7 6 7 5 5 4 4 5 6 4 4 4 4 3 3 4 4 5 5 5 5 5 6 5 6 6 6 5 6 7 7 7 7 8 8 7 8 9 9 9 8 9 9 9 8 9 9 9 8 7 8 9 6 9 11 12 18 13 11 11 11 8 15 14 11 14 14 10 11 11 9 10 9 9 8
8 7 7 7 8 7 7 7 6 7 8 6 7 6 5 5 4 4 3 3 3 3 3 3 3 3 3 4 4 4 5 5 5 5 6 6 7 6 6 7 7 8 8 8 8 8 9 9 10 9 8 10 10 9 9 10 9 10 11 9 10 10 9 9 11 14 16 16 13 14 12 9 11 15 14 11 15 12 13 13 11 10 9 10 9
7 7 7 7 7 7 7 6 7 7 8 6 6 5 4 3 3 3 3 2 3 3 2 2 2 3 3 3 4 4 4 5 5 5 6 6 6 7 7 7 7 7 8 9 9 9 9 10 9 10 10 11 10 10 9 9 9 10 11 11 10 11 11 10 11 12 14 16 15 13 12 13 11 13 12 12 14 15 13 14 12 10 11 10 11
8 7 8 8 6 7 7 7 8 7 6 5 5 4 4 3 3 3 2 2 2 2 2 2 2 3 3 4 4 4 5 5 5 5 5 5 6 7 7 7 7 8 8 8 8 9 9 9 10 10 10 11 11 9 9 12 10 10 11 11 11 11 10 10 11 12 14 16 17 14 13 14 12 13 13 13 13 14 14 14 12 11 11 10 9
7 8 7 8 7 7 7 7 7 7 6 5 5 4 3 3 3 2 2 2 2 2 2 3 3 3 3 3 4 4 4 5 5 6 6 6 6 7 7 7 8 8 8 8 8 8 9 10 10 10 10 10 11 11 11 12 12 11 12 12 11 12 13 13 12 12 13 15 15 17 14 14 13 12 12 12 12 15 15 13 11 10 9 10 9
7 7 7 8 7 7 7 7 7 6 5 5 4 4 3 3 2 2 2 2 2 1 2 2 2 3 3 3 4 4 5 5 5 6 6 6 7 7 7 8 8 7 7 8 8 8 9 9 9 9 10 10 11 11 12 13 11 13 12 12 12 12 12 12 12 13 13 14 15 14 15 14 13 15 12 12 14 13 15 15 15 11 10 10 11
7 7 7 7 7 7 7 7 7 6 5 5 4 4 3 2 2 2 2 2 2 2 2 3 2 3 3 3 4 4 4 5 5 5 6 6 7 7 7 9 9 8 9 8 8 8 8 9 9 9 9 9 10 11 12 11 11 13 12 11 12 13 13 13 13 12 13 14 15 15 13 14 13 11 12 12 13 13 11 12 16 16 13 10 10
7 7 7 7 7 7 7 6 5 6 6 5 4 3 2 2 1 1 2 1 2 2 3 3 3 3 3 3 4 4 4 4 4 5 7 8 9 9 9 9 10 11 10 9 9 8 8 8 8 8 10 13 17 16 16 15 13 13 13 12 12 13 12 12 12 12 12 13 15 13 14 14 13 13 13 11 11 13 14 12 15 16 16 16 14
8 7 8 7 7 7 7 7 6 6 5 5 4 2 1 1 0 1 1 1 2 2 2 2 2 3 3 3 3 3 4 3 7 12 11 9 10 8 9 9 9 10 10 10 10 10 10 10 9 14 16 16 17 19 19 20 20 16 14 13 12 12 12 13 13 12 13 14 14 14 14 14 13 12 13 13 13 14 15 14 15 16 16 15 16
8 8 8 7 8 8 7 7 7 6 5 4 2 1 1 1 1 1 0 1 1 2 2 2 3 3 3 3 4 3 4 5 12 13 13 14 10 9 9 10 10 10 10 10 11 11 10 11 11 12 13 14 13 17 19 20 19 19 21 20 17 14 12 13 13 12 12 13 14 15 15 17 17 14 14 13 12 12 11 12 12 14 15 15 17
9 8 7 8 8 8 7 7 7 6 5 3 2 2 1 2 2 1 0 1 1 1 2 2 2 2 3 3 3 4 5 9 13 13 13 13 12 10 9 9 9 9 9 10 10 10 11 11 11 10 10 12 13 14 16 19 20 20 20 20 19 19 19 14 13 13 12 13 14 14 14 14 15 13 12 12 12 13 13 13 13 14 15 15 14
8 8 7 8 7 7 7 6 5 5 3 3 2 3 3 3 2 1 0 1 1 1 1 2 2 2 3 4 4 5 5 10 13 14 13 14 14 12 8 8 9 9 9 10 10 10 10 11 11 10 10 16 13 13 14 14 17 20 19 19 18 18 17 19 19 15 14 14 15 16 14 14 16 13 13 14 14 16 15 14 14 14 15 16 15
8 8 8 8 8 8 8 6 5 5 4 4 3 3 3 3 2 1 0 1 1 1 1 2 2 3 4 4 5 5 7 10 14 14 14 14 14 13 9 9 9 9 10 10 9 10 11 11 12 12 12 13 13 14 14 14 14 14 13 13 13 16 19 22 23 24 21 17 17 18 16 14 16 15 15 15 15 15 14 15 15 15 16 18 20
7 8 8 7 7 6 7 5 5 5 5 4 4 3 3 3 2 1 0 1 2 2 2 3 3 3 4 4 5 5 6 13 14 15 14 15 15 13 7 8 8 8 9 9 10 10 11 11 12 13 14 13 12 15 16 16 15 13 13 13 13 14 15 15 15 15 14 14 17 18 18 17 17 17 14 13 14 15 15 16 15 15 16 17 18
8 8 8 8 8 8 6 6 5 5 5 4 4 3 3 2 1 0 0 1 1 1 2 2 3 4 4 5 5 6 6 13 14 14 15 15 16 9 7 8 8 9 9 10 10 10 10 11 12 14 14 15 18 24 21 17 15 15 15 14 14 15 14 15 22 22 20 17 16 16 16 17 20 18 17 14 12 11 11 11 9 9 13 15 16
9 9 8 9 9 8 8 6 6 6 5 5 4 4 3 1 0 0 0 2 2 2 2 3 3 4 4 4 6 6 7 10 14 15 16 17 13 8 8 7 8 10 11 11 10 10 10 11 12 13 15 16 20 25 25 24 17 16 15 16 14 11 12 12 20 26 27 29 30 30 30 30 30 30 28 28 21 16 13 14 14 12 15 16 15
9 8 9 8 8 8 6 6 7 6 5 5 5 3 2 0 1 1 1 1 3 2 3 3 2 3 4 5 4 7 6 10 15 16 16 16 14 10 8 9 8 9 11 10 10 11 13 20 18 16 18 18 22 25 26 23 16 15 15 15 16 14 14 13 10 13 25 30 31 31 30 30 30 30 29 27 26 21 15 18 15 14 18 16 17
10 11 10 9 8 6 6 6 6 6 6 5 5 4 2 1 1 1 1 1 3 2 3 3 3 2 3 4 8 9 8 9 14 16 17 16 12 9 8 7 8 11 10 12 12 12 13 13 20 19 18 21 28 27 29 24 16 15 16 16 16 15 15 16 12 14 11 10 12 15 17 21 21 18 18 25 27 24 19 18 14 14 17 17 16
9 7 8 9 8 6 6 6 6 6 6 5 4 3 2 1 2 1 1 1 2 2 3 3 5 3 2 4 5 6 8 7 10 17 16 16 16 10 9 8 10 12 11 10 10 10 10 10 11 19 24 26 27 29 28 29 21 16 15 15 14 15 11 14 14 13 15 12 12 11 13 12 13 13 14 14 17 18 19 18 17 16 17 18 16
9 9 9 8 7 6 5 6 7 5 5 5 4 2 2 2 1 1 2 1 2 3 4 4 4 4 2 4 4 5 5 8 9 16 16 16 16 14 9 9 9 9 8 8 7 9 10 8 8 16 25 26 27 29 30 31 28 19 13 11 12 19 21 14 14 19 15 13 11 10 10 10 11 12 13 13 13 13 14 17 17 17 17 17 17
9 9 8 7 7 6 6 4 5 5 5 5 5 3 2 2 1 1 1 1 3 5 4 3 4 4 2 3 3 5 7 12 9 13 16 16 16 17 11 10 11 11 11 11 13 13 12 11 10 15 26 28 28 29 32 31 31 19 17 24 28 29 21 15 12 8 8 9 11 12 12 12 13 12 13 12 12 13 12 13 15 16 16 17 17
9 8 8 8 7 7 6 6 5 5 4 5 5 3 2 2 2 1 1 2 3 5 5 4 4 5 3 2 2 4 5 7 14 12 15 16 17 16 18 15 19 12 12 12 10 10 10 13 15 24 27 27 28 30 30 32 25 16 26 28 29 31 25 12 9 10 11 11 11 13 13 13 12 12 12 13 11 11 12 13 14 16 16 16 18
8 8 7 7 7 6 6 5 6 5 6 5 4 4 3 2 2 2 2 2 3 4 3 3 3 4 5 4 2 4 5 6 10 14 13 16 16 18 18 19 19 13 11 11 12 13 12 12 13 26 28 29 28 27 27 25 20 27 28 28 28 25 12 10 10 11 12 12 12 12 12 11 12 13 13 12 12 11 12 13 14 15 17 16 18
9 8 8 7 7 6 5 6 6 6 4 6 5 4 4 3 3 3 3 2 2 4 4 2 3 4 5 6 5 5 5 5 6 9 16 15 17 18 19 20 20 20 14 9 10 12 19 26 28 27 27 27 27 26 22 22 24 24 26 25 24 11 11 11 12 12 12 13 12 12 12 13 13 14 14 13 13 12 12 12 13 13 14 15 16
10 10 8 8 8 7 7 6 5 5 5 4 4 4 4 4 3 2 3 4 3 4 4 3 3 4 5 5 6 6 6 6 6 6 8 11 13 17 20 19 20 21 19 15 21 24 24 25 26 25 21 19 16 13 13 13 20 23 22 21 12 11 11 11 11 12 12 12 13 13 14 13 14 14 16 14 12 13 12 12 13 12 11 11 12
10 9 10 8 7 7 7 6 5 4 3 3 3 3 4 3 3 3 4 4 3 4 4 4 4 4 5 6 6 7 6 6 7 6 7 7 8 9 9 10 15 16 12 11 14 14 16 17 16 21 18 22 20 17 15 15 12 11 9 10 10 10 10 10 11 12 12 12 12 12 13 13 13 14 14 13 15 14 12 12 13 14 14 12 13
12 11 10 8 8 8 7 5 6 5 5 4 4 4 3 3 5 6 6 5 4 5 4 5 5 5 5 6 6 6 7 7 6 7 7 7 7 8 9 7 8 10 10 10 11 12 11 13 14 10 10 9 9 8 8 9 9 10 9 10 10 11 13 17 16 11 11 11 12 13 12 12 13 13 13 13 13 13 11 9 10 10 10 9 12
8 8 7 7 7 6 6 6 5 5 4 3 4 4 4 4 6 5 5 4 5 6 6 7 7 6 6 6 7 7 6 5 6 10 10 14 12 10 8 8 9 8 11 18 11 8 8 8 7 9 8 9 9 9 9 9 9 9 10 10 10 10 10 10 11 11 12 12 12 12 13 13 13 13 13 13 12 12 10 8 10 9 11 10 13
8 8 8 7 6 6 5 5 4 4 4 4 3 4 7 11 8 6 6 10 15 17 14 9 8 7 8 9 9 8 6 6 13 16 16 16 17 17 15 16 16 13 16 15 9 5 5 6 7 7 8 9 9 9 10 10 10 11 10 12 11 10 10 10 10 11 12 12 13 13 14 14 14 13 13 13 14 12 11 14 13 10 11 12 12
8 7 7 7 7 6 5 5 4 4 3 3 2 3 5 6 10 14 14 13 13 15 16 19 19 18 12 7 8 16 16 16 15 15 15 16 16 15 15 14 15 15 15 8 6 5 5 7 8 7 8 8 8 8 9 9 10 10 11 11 10 11 12 10 11 12 13 13 13 13 13 13 14 14 14 14 15 14 13 10 10 11 12 12 13
10 8 7 5 6 6 4 4 4 4 3 2 2 2 1 5 10 6 6 9 11 13 15 17 16 15 17 15 10 3 9 13 14 14 15 15 13 13 13 13 13 13 12 10 4 3 4 6 8 8 8 8 9 9 9 9 9 9 10 10 11 10 11 11 12 12 13 13 13 13 13 13 14 14 15 15 16 15 13 13 12 11 11 11 12
7 6 6 6 5 6 5 5 4 4 4 3 3 2 2 2 3 10 9 6 8 12 16 16 14 12 10 9 10 11 11 12 13 13 14 13 11 11 12 12 12 10 9 5 2 4 4 6 7 8 7 8 9 9 9 9 9 10 9 10 10 10 11 12 13 12 12 13 13 13 13 13 14 14 15 15 15 15 14 13 13 12 12 12 12
6 6 7 7 7 6 6 5 5 4 4 4 4 4 3 4 3 3 5 11 9 4 2 6 8 10 10 11 12 12 12 12 12 13 12 10 10 10 10 7 7 5 7 3 3 4 5 7 7 8 8 8 8 8 8 8 8 9 9 10 10 10 10 10 10 11 11 11 11 12 13 13 13 13 14 14 14 15 15 14 13 12 12 12 12
5 5 8 6 6 6 5 5 6 5 5 5 5 5 5 3 3 3 4 3 5 8 8 4 5 8 8 10 13 13 11 11 12 12 10 8 9 9 8 5 4 2 2 0 2 3 6 7 8 8 8 8 8 8 8 9 9 9 9 10 10 9 10 9 9 10 10 11 12 12 13 13 13 13 13 14 14 15 15 14 13 13 13 12 11
6 5 5 6 5 4 4 5 5 6 5 5 5 4 5 5 4 4 4 4 5 5 8 8 6 7 13 14 12 10 11 12 11 10 6 8 8 8 4 3 3 3 4 2 2 3 5 6 7 8 8 8 8 7 7 8 9 10 9 9 10 11 11 10 10 11 13 12 12 13 14 13 13 13 13 14 15 15 14 15 15 14 14 13 12
6 5 4 4 5 5 5 4 4 4 5 4 4 3 4 4 5 4 5 4 5 5 7 7 8 9 5 3 6 10 13 12 11 8 6 8 7 4 0 2 3 5 5 4 3 3 6 6 6 7 7 7 8 8 8 8 8 9 9 9 9 9 9 10 12 13 12 12 12 12 13 12 13 13 13 14 14 14 14 14 14 15 15 16 16
6 5 5 4 5 5 4 4 4 6 4 3 3 4 4 4 4 4 5 4 5 5 6 6 5 6 8 7 3 4 8 12 10 5 6 6 3 0 1 2 2 3 5 4 3 4 6 5 5 7 7 7 8 9 9 8 8 8 9 9 9 8 16 14 13 10 9 10 11 11 12 12 12 12 13 13 14 13 14 14 14 14 15 16 13
4 5 8 8 6 5 4 4 4 4 4 4 5 5 5 4 4 4 5 4 5 5 6 5 6 7 7 5 5 5 7 5 4 3 3 3 3 3 3 3 3 3 3 4 4 4 5 6 6 7 7 7 8 7 7 8 8 8 9 9 10 10 11 10 11 11 11 11 11 11 11 12 12 12 12 12 13 13 13 14 14 14 14 13 13
4 4 6 9 5 6 6 5 4 5 6 5 5 5 4 5 5 5 4 4 6 5 5 6 7 7 5 2 5 4 5 6 5 3 3 3 3 4 3 4 4 4 4 4 3 4 5 5 6 7 7 7 6 7 7 8 8 9 9 9 10 11 11 11 10 11 11 12 11 11 11 12 13 12 12 11 11 12 13 14 14 14 13 13 13
4 4 3 5 6 5 4 6 6 6 5 6 5 5 6 6 5 5 4 5 6 5 6 7 7 7 4 8 14 13 8 5 3 3 4 3 3 3 3 4 4 5 4 4 4 4 5 6 6 6 7 6 6 7 7 8 8 9 9 10 10 10 11 11 11 11 11 11 10 11 12 12 12 12 12 12 13 13 12 12 12 12 12 12 12
4 4 3 4 4 4 5 6 5 5 5 5 5 5 6 6 4 5 6 5 6 6 6 7 7 5 8 15 14 15 6 1 2 5 4 3 3 4 4 4 5 5 4 4 4 5 4 6 7 6 6 7 7 7 8 8 8 8 9 10 11 12 12 12 12 13 12 11 10 10 11 13 14 13 13 13 12 11 12 12 12 12 11 11 11
4 4 4 4 5 5 5 5 4 4 4 5 5 4 5 5 5 6 5 6 6 6 6 7 6 4 5 9 10 11 4 3 4 5 4 5 4 5 4 4 4 4 4 5 4 4 5 5 6 6 5 6 6 6 8 8 9 10 10 10 11 12 12 12 13 13 13 12 10 12 13 13 13 12 12 12 11 11 11 12 11 11 11 11 9
4 4 4 4 4 4 4 3 4 5 4 5 4 5 5 5 5 5 6 6 6 6 6 6 6 5 5 6 6 5 5 5 5 5 5 5 5 5 5 4 4 4 4 4 4 4 5 5 6 6 6 6 6 6 6 7 8 9 10 10 11 12 12 12 13 13 13 12 10 11 13 13 13 12 12 12 11 11 11 11 11 10 10 9 9
3 3 3 4 4 4 4 4 4 4 5 5 3 4 6 5 5 6 6 6 7 6 6 6 5 5 6 5 5 5 5 5 6 6 5 5 6 6 5 5 5 5 5 5 4 4 5 6 7 7 8 7 6 6 6 6 7 8 8 10 10 11 11 12 12 12 12 11 9 10 12 12 11 11 11 11 11 11 10 10 10 10 10 9 8
4 4 4 4 4 5 5 4 5 4 5 5 5 5 5 5 6 5 6 6 6 6 6 5 5 5 6 6 5 6 6 5 6 5 6 5 5 6 5 5 5 5 5 5 5 5 6 6 6 7 8 8 8 7 6 6 7 7 8 9 10 10 10 10 11 13 12 9 8 10 11 11 11 10 12 12 10 10 10 11 10 9 9 9 8
3 4 4 4 4 5 5 5 4 5 4 5 5 5 6 6 6 6 7 7 6 7 6 6 5 5 5 5 6 6 6 5 5 5 5 6 6 6 6 5 6 6 6 5 5 6 6 6 6 7 8 8 8 9 8 6 6 7 7 8 9 11 10 10 12 13 12 10 9 8 9 10 10 10 11 11 10 10 10 10 9 10 9 8 8
4 4 4 5 4 4 5 4 5 5 5 6 5 6 6 6 6 6 7 6 6 6 6 5 5 5 6 6 6 6 6 6 5 6 5 6 6 5 5 5 6 6 6 6 6 6 6 6 7 7 7 7 7 8 8 8 7 7 7 8 8 9 14 18 13 13 11 9 9 8 8 9 9 9 9 9 9 9 9 9 9 8 8 8 7
3 4 4 4 4 5 5 5 6 5 5 5 5 5 6 6 5 5 5 6 6 6 6 6 6 5 5 6 5 6 6 7 6 6 6 6 6 6 6 6 6 6 6 6 7 6 7 7 7 7 7 7 7 8 8 7 8 8 8 8 11 19 21 23 17 13 16 10 7 8 7 7 7 8 8 8 8 8 7 7 7 8 7 7 6
4 4 4 4 4 5 6 5 5 5 6 6 6 6 6 6 6 5 5 5 5 6 5 6 6 6 5 5 6 6 5 5 6 6 6 5 5 5 5 6 6 6 6 6 7 6 6 6 7 7 7 7 7 7 7 7 8 8 8 9 17 22 22 22 21 21 16 7 8 6 7 7 7 7 7 8 7 8 7 7 7 7 6 6 6
3 3 4 4 4 4 3 3 5 5 5 5 6 6 6 6 6 6 5 5 6 6 5 5 6 5 6 6 6 5 6 6 6 6 6 6 6 5 5 6 6 6 6 6 7 7 6 6 6 7 7 7 7 7 7 7 8 8 12 18 21 21 21 19 15 18 21 11 6 6 6 8 8 8 7 7 7 7 8 8 7 6 6 6 6
Wind_Direction
149 149 147 146 140 131 128 122 113 109 104 97 95 91 82 69 65 73 70 49 40 38 35 28 20 16 9 9 9 1 1 356 356 354 352 348 346 339 337 340 336 331 329 325 327 324 321 315 313 312 310 309 309 311 309 306 301 293 287 285 280 276 270 271 274 282 286 272 272 284 293 303 297 291 295 297 290 280 272 275 283 282 276 269 272
165 157 161 146 136 130 122 117 104 94 93 89 79 77 66 60 55 50 52 37 45 35 34 22 15 8 5 359 358 353 349 347 343 345 341 336 334 334 329 331 324 320 321 317 323 323 317 313 312 314 314 307 309 311 310 310 308 302 296 292 286 285 270 274 276 277 286 293 286 282 287 284 286 291 292 299 297 298 287 279 274 271 277 276 271
166 158 150 145 136 126 113 103 105 101 87 74 68 59 58 58 50 68 64 47 34 44 25 24 11 3 2 355 352 349 346 343 340 337 330 329 326 324 324 322 319 317 317 314 316 315 313 310 310 312 314 311 308 306 306 303 303 300 297 293 291 286 282 270 274 279 283 286 288 288 286 283 276 289 294 290 290 290 289 283 275 271 264 270 271
166 155 148 135 128 118 116 116 95 84 76 71 74 69 73 74 62 64 62 48 51 30 35 23 16 5 3 359 350 345 345 339 336 330 324 323 318 316 316 313 308 306 305 307 312 312 310 310 308 314 313 307 304 305 302 299 298 297 293 291 288 287 285 280 270 275 282 286 285 283 286 288 280 280 285 287 288 290 282 284 280 268 267 260 264
162 157 145 141 140 121 113 103 96 92 94 93 95 89 80 76 63 68 56 51 49 53 27 20 21 10 7 359 351 353 347 338 331 325 320 316 312 311 310 308 305 304 303 303 305 306 307 305 307 311 310 305 303 302 302 300 297 293 289 290 286 284 282 279 277 274 277 278 284 283 284 281 279 280 281 286 290 286 285 279 280 281 278 264 253
167 153 155 140 134 124 119 111 111 112 112 106 103 96 80 69 58 36 61 35 55 34 33 15 15 8 357 360 352 347 340 331 323 318 316 317 312 307 306 305 305 304 303 303 304 305 302 302 303 305 305 303 302 304 302 298 296 289 287 286 285 282 281 280 277 275 272 275 280 288 285 285 290 281 281 283 286 290 290 289 288 283 280 279 254
166 161 154 140 137 137 135 128 121 118 116 112 104 89 73 63 46 40 34 48 51 25 21 28 2 13 354 7 351 348 336 325 319 317 315 311 308 308 307 305 303 302 299 300 300 298 298 299 300 301 298 297 297 297 299 297 294 291 290 290 289 288 286 285 283 281 278 280 282 280 286 286 282 287 286 281 281 278 287 298 297 287 276 275 285
166 161 153 151 150 147 135 127 116 116 113 107 95 85 72 53 41 28 52 34 40 27 11 7 360 8 4 358 348 342 330 319 314 311 306 305 308 308 309 310 309 306 303 301 301 299 299 297 295 293 292 291 291 295 299 298 299 296 294 293 291 289 286 286 286 284 284 283 280 284 283 288 293 290 296 293 284 281 280 286 290 297 296 291 287
166 165 163 164 161 144 129 117 115 111 108 97 86 74 67 48 23 35 40 27 23 19 5 356 2 4 357 350 344 334 323 311 314 309 314 318 321 317 315 312 311 311 312 309 309 305 301 299 296 295 294 295 296 295 295 295 296 295 294 295 296 295 293 290 289 288 285 283 284 283 286 287 289 296 295 291 288 291 297 292 287 286 291 296 290
170 173 176 170 149 137 126 118 113 107 99 96 91 83 86 37 6 37 7 31 12 9 358 357 10 351 347 338 339 328 312 306 301 309 316 317 317 313 310 308 309 309 309 310 309 309 307 304 299 300 299 298 299 298 297 294 290 287 291 296 297 296 294 294 292 291 291 288 286 290 289 288 294 298 300 301 305 302 295 289 285 289 291 287 287
182 180 178 160 146 133 124 121 111 107 107 104 112 122 152 214 181 203 296 27 2 5 351 0 357 341 340 331 328 323 307 296 307 315 316 316 313 308 305 305 305 304 302 303 305 308 306 305 303 304 301 297 295 294 296 294 293 293 292 291 290 290 294 293 290 290 287 282 283 284 283 286 288 289 289 296 297 298 304 313 312 307 299 296 294
183 186 166 151 147 135 127 122 117 116 119 129 144 155 196 201 202 193 216 23 353 355 343 358 333 335 324 326 318 313 301 302 310 312 312 310 310 306 303 301 301 298 298 298 301 303 304 304 302 302 299 297 297 298 295 295 295 295 294 293 291 289 288 291 296 297 294 294 291 291 294 293 296 298 301 302 300 302 304 307 306 303 300 299 298
179 170 160 156 151 137 133 133 130 130 136 142 154 183 189 199 193 188 96 318 298 326 331 332 320 326 322 319 318 308 294 302 307 310 310 311 309 307 300 297 297 297 297 298 299 300 301 301 300 296 295 296 296 296 296 295 294 292 292 291 291 290 289 288 288 288 292 290 289 290 289 296 293 293 294 298 306 300 300 295 295 296 296 294 289
172 167 161 160 145 140 138 141 141 141 140 150 172 187 183 196 190 186 124 273 302 298 305 311 321 322 319 314 307 303 296 297 307 310 311 309 308 307 300 301 297 296 296 294 295 295 296 297 299 298 297 297 294 293 293 292 290 291 288 287 287 286 284 281 280 279 278 279 281 281 282 279 281 289 291 293 292 289 286 283 281 279 277 276 281
166 164 164 151 148 147 143 142 143 144 149 164 179 184 188 188 176 142 128 322 316 315 321 316 308 308 305 305 303 298 289 304 310 311 309 308 308 311 306 302 294 290 290 289 290 291 294 295 294 294 295 293 290 288 290 289 289 283 276 269 266 266 269 269 270 268 262 267 271 271 271 269 272 277 279 276 272 271 271 270 273 275 277 277 275
168 161 165 165 161 155 150 152 144 148 162 172 177 192 187 181 132 117 14 296 267 287 292 293 298 303 302 301 301 296 293 308 311 309 308 309 311 310 301 295 295 294 290 291 288 289 290 293 294 292 289 289 288 289 286 286 285 279 275 269 266 265 258 255 261 266 269 267 263 263 266 266 268 273 275 276 275 275 271 274 279 285 290 289 285
179 177 174 168 166 156 149 147 156 163 168 172 181 197 180 179 155 154 340 296 295 288 283 287 291 291 294 296 298 295 294 303 307 308 308 310 312 299 294 293 293 294 290 291 289 286 285 281 282 284 285 280 282 287 287 287 284 277 274 272 271 264 261 248 255 266 273 272 273 275 277 278 280 283 285 286 286 286 287 285 284 287 283 284 284
181 176 178 170 158 153 152 154 163 169 167 179 186 186 167 161 182 166 273 287 286 276 289 288 273 274 284 292 289 294 290 302 307 308 308 308 307 303 297 286 271 279 292 289 287 281 274 272 273 281 282 281 282 285 287 289 286 284 281 277 277 272 272 267 257 259 265 269 270 272 274 277 279 281 284 285 284 284 281 278 278 279 274 274 279
179 183 174 153 148 149 151 158 160 164 174 181 179 179 181 182 188 198 224 242 265 276 284 288 277 266 258 274 297 299 292 297 304 304 306 306 308 302 297 284 282 294 295 293 283 277 277 271 273 274 285 289 290 292 293 294 289 280 279 276 274 266 270 274 264 269 262 255 256 256 262 263 265 264 263 264 270 271 268 267 270 266 270 271 273
176 148 138 144 142 148 156 159 162 163 172 173 178 181 167 164 196 206 243 262 274 288 282 278 287 281 271 274 277 286 288 286 294 301 303 305 307 304 298 294 295 294 286 273 279 277 269 265 270 278 290 292 293 295 295 293 287 281 276 274 270 272 267 266 264 267 271 259 255 249 253 250 251 252 250 249 254 251 257 260 261 261 262 265 265
153 153 138 141 148 152 157 160 162 171 170 172 169 169 174 188 182 215 256 274 283 292 290 279 285 282 270 267 265 275 270 282 286 297 303 305 306 306 298 287 279 276 272 264 261 283 293 276 261 282 295 295 294 293 293 288 286 285 281 268 266 275 278 275 273 271 271 272 270 269 270 270 266 265 265 262 258 255 254 257 260 261 261 265 265
149 149 153 154 155 156 157 159 154 163 168 156 169 182 196 176 201 210 235 267 291 292 290 288 284 285 282 266 256 269 276 283 284 291 299 303 305 306 302 293 295 294 295 299 299 294 283 280 275 287 297 296 293 289 286 289 293 296 289 289 294 299 302 299 295 294 287 289 290 288 285 280 278 276 273 272 270 268 265 265 263 262 260 261 263
151 151 152 156 162 162 162 159 169 168 172 178 164 178 191 186 217 196 210 254 266 282 279 283 293 295 295 278 260 261 264 268 283 286 294 304 306 307 304 303 304 303 298 285 278 284 293 295 290 289 289 291 293 296 299 302 307 304 303 304 304 303 305 307 304 300 299 298 295 291 288 286 284 282 279 280 274 268 267 266 266 265 266 266 264
150 153 160 163 158 165 171 175 175 180 177 168 162 170 196 197 209 216 210 218 248 271 273 280 290 299 305 300 280 278 270 274 275 284 297 307 310 309 309 307 306 301 296 298 301 297 294 286 286 299 306 308 307 308 308 309 304 304 303 302 303 307 316 317 317 307 303 298 292 289 288 285 286 286 284 281 281 274 268 262 259 253 255 259 263
157 165 169 169 172 173 171 180 180 184 185 164 165 178 207 184 210 238 201 226 234 259 269 267 276 287 295 295 306 305 294 285 286 296 309 310 312 311 311 310 310 310 307 292 292 297 304 309 312 312 311 313 315 314 312 308 305 305 307 309 317 323 318 312 307 305 299 294 290 289 288 287 283 284 283 280 277 271 267 264 256 256 256 256 256
168 175 174 175 179 169 178 193 194 195 185 185 187 187 184 194 196 208 203 227 219 238 261 258 263 270 278 286 293 297 288 281 286 289 289 301 302 302 305 310 310 310 311 312 312 314 314 314 314 317 319 320 319 316 311 312 313 314 314 317 317 313 311 307 302 300 293 291 290 289 288 289 289 290 288 281 275 273 271 265 267 259 251 253 258
172 172 182 181 174 179 183 189 190 193 195 187 192 189 189 186 197 214 216 220 230 230 250 250 262 260 264 280 287 284 280 284 283 281 304 297 298 290 290 287 307 320 324 322 322 319 318 322 322 322 323 319 318 317 316 315 314 313 314 315 313 313 310 305 303 301 299 296 296 295 294 293 293 293 290 288 285 280 269 261 265 268 268 260 259
179 184 183 180 180 181 187 181 182 190 195 179 186 204 211 192 197 213 199 204 201 237 221 242 244 252 264 275 273 272 285 280 274 302 286 268 274 302 301 304 330 331 330 327 323 331 333 331 330 332 326 324 322 320 322 326 327 328 326 324 319 317 316 315 311 303 299 298 293 292 289 292 293 292 290 285 281 277 269 258 259 262 258 255 264
177 175 177 172 187 178 183 186 188 190 198 205 218 205 193 198 218 237 228 193 211 230 248 245 245 241 243 254 273 279 258 268 293 296 300 311 314 311 317 332 330 336 334 330 343 352 341 333 330 331 334 332 332 327 328 329 328 324 320 319 319 318 315 312 312 309 306 304 302 303 302 300 296 292 288 282 275 274 266 259 263 258 266 257 256
174 186 180 184 180 177 182 188 189 189 194 210 233 278 246 238 227 218 251 233 235 239 234 226 228 234 243 248 226 247 277 282 301 309 311 310 310 314 321 325 328 334 331 349 11 349 334 324 326 327 326 331 327 327 327 327 324 323 319 321 319 317 316 315 311 311 312 310 308 304 300 298 294 293 290 289 287 280 276 281 277 265 264 262 257
183 184 180 194 185 184 179 180 184 180 189 185 203 254 318 293 271 262 262 264 264 265 265 266 268 265 267 279 282 281 288 299 305 305 308 308 311 320 324 327 336 338 337 3 4 345 326 331 325 322 321 319 318 320 320 318 318 316 317 316 313 315 316 314 314 313 311 307 304 302 300 299 297 296 297 297 296 293 291 280 270 269 264 263 263
186 192 185 179 177 182 174 172 163 171 180 184 186 202 265 310 309 282 256 271 279 278 274 275 274 276 276 272 273 311 300 295 299 304 306 308 317 324 325 336 344 340 342 11 350 317 319 320 317 318 319 318 315 315 314 311 310 309 308 309 309 309 312 312 312 312 309 307 305 304 303 302 300 301 302 303 302 296 290 288 284 278 269 266 263
175 164 169 170 174 174 172 171 173 169 183 184 190 189 207 228 269 308 315 310 299 278 275 271 273 277 282 285 290 291 295 300 301 304 305 312 327 326 331 352 345 342 354 6 313 314 313 320 312 308 309 306 309 308 307 306 304 304 302 299 299 303 305 302 304 303 303 302 304 303 304 304 305 306 308 307 303 298 295 287 282 274 270 265 264
171 166 172 175 172 180 179 176 176 180 179 180 182 187 206 202 217 243 299 320 334 344 257 309 320 324 317 306 299 298 297 301 303 303 307 324 333 332 353 359 342 9 5 338 324 317 320 315 307 304 304 302 300 303 300 302 303 298 298 295 294 294 292 294 299 301 297 297 304 308 308 307 308 309 306 305 302 301 298 294 290 287 285 278 275
159 160 161 161 179 180 179 172 177 177 174 187 190 196 201 199 199 211 224 249 270 293 301 296 296 301 298 302 301 295 298 302 304 305 313 342 341 351 11 12 354 329 349 229 283 298 306 303 299 300 300 300 300 301 300 302 303 301 300 302 299 292 300 302 299 289 295 311 315 311 310 310 309 305 305 303 303 302 302 301 297 287 276 268 269
168 161 170 169 171 170 175 184 183 186 190 199 192 195 182 187 207 208 220 230 245 257 275 284 292 292 292 286 283 290 300 303 303 305 325 357 357 22 7 341 331 318 314 294 269 293 298 287 290 291 295 291 295 297 298 299 299 303 302 299 300 303 303 303 303 313 320 315 312 313 312 308 305 305 302 299 297 298 300 302 301 299 295 288 280
167 174 169 177 174 178 180 184 188 191 204 192 195 191 197 206 204 206 214 229 242 248 256 284 306 306 293 272 294 300 307 307 303 303 356 358 8 56 189 276 281 299 292 303 314 309 301 291 292 288 292 293 298 299 300 298 297 299 299 300 295 298 297 306 318 317 311 309 306 308 309 306 305 304 304 302 301 299 299 300 301 301 302 299 297
178 177 173 165 169 176 179 188 195 202 207 204 194 195 205 201 206 207 219 231 239 247 261 262 265 273 291 288 296 303 300 301 298 305 341 349 6 231 254 265 277 284 296 299 299 298 297 294 293 296 294 297 299 304 303 298 300 301 304 302 300 295 315 318 312 304 295 300 305 306 310 309 307 306 305 303 302 301 299 301 302 303 302 301 299
163 184 186 184 185 181 187 192 199 197 211 204 207 204 212 213 217 226 227 231 240 252 252 260 261 258 255 271 296 295 305 286 280 279 295 307 305 298 283 278 274 271 272 282 293 294 293 295 299 298 294 297 298 298 298 300 305 306 307 306 307 307 313 315 314 313 312 314 312 311 310 310 310 307 305 302 300 300 302 303 302 300 299 299 300
163 181 197 201 204 199 174 186 192 202 207 203 217 206 216 217 226 225 226 226 241 241 244 249 256 251 255 256 270 275 264 269 280 289 293 281 282 286 276 278 275 265 274 281 281 286 289 286 290 291 292 294 294 297 301 304 307 307 307 307 309 311 316 316 313 314 313 314 312 309 307 308 309 306 302 302 301 303 305 304 302 301 299 299 300
172 179 179 214 207 212 199 186 200 206 200 206 206 204 215 223 222 222 223 236 240 244 245 246 251 257 254 261 268 265 262 260 284 282 275 268 254 258 262 250 254 267 267 267 277 278 276 283 285 286 292 295 301 302 307 308 309 310 309 308 306 313 315 315 314 312 313 313 313 314 313 311 310 311 309 308 309 308 303 302 301 302 303 302 303
168 171 196 207 218 203 207 222 218 211 208 208 211 214 224 221 221 222 229 235 237 240 250 252 254 254 264 273 277 279 282 74 290 282 277 261 254 240 246 248 248 247 261 265 271 277 279 281 284 287 295 301 307 307 309 309 309 309 308 309 312 318 320 321 321 320 317 314 311 311 310 313 315 312 309 309 308 307 306 305 306 306 306 307 308
175 194 204 203 205 215 215 222 205 208 216 218 227 224 221 217 223 227 234 237 239 242 243 256 266 261 265 275 281 287 304 304 281 273 265 269 268 263 252 251 251 252 257 264 260 263 270 276 282 285 288 293 296 297 303 303 307 307 307 308 311 315 318 322 323 321 320 315 311 314 313 314 316 315 313 312 310 311 309 309 308 309 310 311 313
189 202 202 210 214 222 225 218 225 223 221 225 224 223 223 228 231 232 232 240 242 243 245 253 263 272 273 275 277 286 282 271 262 257 258 264 267 272 276 273 273 271 272 269 271 268 275 278 283 285 284 281 284 284 283 288 296 298 301 304 307 312 317 322 323 321 318 316 314 317 319 317 315 314 312 314 315 315 315 314 313 312 313 314 318
187 196 209 211 216 213 229 220 226 229 234 231 237 235 234 226 232 232 231 240 245 244 246 249 253 255 266 268 258 251 256 256 258 259 262 262 271 273 278 281 281 284 285 284 282 286 284 284 286 290 294 290 285 285 284 285 287 291 294 299 299 308 314 318 319 315 310 308 310 313 317 316 315 318 317 318 318 318 316 317 317 316 318 318 321
190 200 204 213 218 222 223 227 223 223 227 233 236 248 242 238 237 238 241 242 243 246 250 250 247 247 248 258 258 256 255 254 256 253 258 264 263 271 271 276 280 281 281 282 286 285 282 279 283 286 290 292 297 292 289 287 288 292 295 292 295 297 306 311 310 308 305 307 313 316 316 314 313 314 319 320 319 321 320 321 322 326 325 323 325
193 197 214 215 223 228 230 225 221 226 227 236 234 239 243 238 230 234 237 238 240 242 246 247 244 245 245 248 252 256 255 253 255 258 256 259 265 267 273 274 277 281 283 283 280 282 281 276 273 276 281 288 292 294 293 292 292 292 294 297 295 298 303 309 306 302 302 313 322 317 315 313 314 316 320 324 323 325 326 327 329 331 334 340 343
197 208 220 224 227 231 239 230 236 241 233 234 234 238 241 241 237 234 233 236 242 244 247 248 245 247 247 251 248 250 252 253 255 256 262 261 263 263 268 270 273 276 283 285 284 278 275 277 275 277 279 284 288 292 294 296 293 293 294 296 298 299 301 303 301 302 306 317 325 320 312 311 312 313 316 319 325 327 329 333 334 335 342 346 352
208 213 225 226 225 231 233 239 236 237 240 247 253 256 250 250 245 241 240 240 241 241 238 244 249 246 243 248 247 251 247 252 255 260 258 260 260 262 262 264 269 272 275 279 280 279 276 275 275 277 278 282 282 285 291 291 294 295 297 295 300 301 302 302 305 306 310 317 328 323 315 308 310 314 314 318 324 327 326 330 336 337 341 346 353
206 211 214 225 231 237 235 229 233 237 242 237 238 246 248 244 249 246 244 241 246 247 244 239 244 244 243 252 248 248 246 250 253 257 260 261 259 257 261 263 266 266 266 271 276 278 278 276 278 279 279 280 281 281 284 286 290 291 293 293 296 301 306 309 310 311 315 337 332 326 315 312 314 314 318 319 321 328 331 336 340 340 341 345 352
221 218 222 227 236 243 241 240 248 244 243 241 239 242 247 245 243 245 241 238 241 245 243 240 239 243 242 243 246 251 252 253 254 257 260 262 262 258 258 261 265 269 270 269 272 273 274 280 279 280 280 280 284 284 284 284 285 285 287 289 297 307 310 313 314 313 321 343 344 330 325 324 322 324 327 327 331 334 339 338 343 347 347 348 349